This demonstration page uses our WeatherBlox Daily Observations layout. Learn more.

Left ArrowRight Arrow

44.8408, -93.29828

Hourly Observations for June 12, 2017

Temp ( °F °C ) Dew Point ( °F °C ) Humidity (%) Winds ( mph kmh ) Pressure ( in mb ) Visibility ( mi km ) Precip ( " mm )
12:53 am 00:53 Mostly Cloudy 69 20.6 66 18.9 90 90 Calm 29.78 1009 10 16 0.00 0.00
1:53 am 01:53 Cloudy 69 20.6 65 18.3 87 87 NE 3 6 29.79 1009 9 14 0.00 0.00
2:53 am 02:53 Cloudy 68 20 65 18.3 90 90 Calm 29.80 1009 7 11 0.00 0.00
3:53 am 03:53 Partly Cloudy 68 20 64 17.8 87 87 NE 3 6 29.82 1010 7 11 0.00 0.00
4:53 am 04:53 Mostly Clear 66 18.9 64 17.8 93 93 N 5 7 29.83 1010 7 11 0.00 0.00
5:06 am 05:06 Partly Cloudy with Mist and Fog 66 18.9 64 17.8 93 93 N 6 9 29.85 1011 6 10 0.00 0.00
5:15 am 05:15 Mostly Cloudy with Mist and Fog 67 19.4 65 18.3 93 93 N 5 7 29.85 1011 5 8 0.00 0.00
5:53 am 05:53 Cloudy with Mist and Fog 66 18.9 64 17.8 93 93 NNE 6 9 29.85 1011 4 6 0.00 0.00
6:04 am 06:04 Cloudy with Mist and Fog 66 18.9 64 17.8 93 93 NNE 3 6 29.88 1012 4 6 0.00 0.00
6:34 am 06:34 Cloudy with Mist and Fog 66 18.9 64 17.8 93 93 N 6 9 29.88 1012 4 6 0.00 0.00
6:53 am 06:53 Mostly Cloudy with Mist and Fog 66 18.9 64 17.8 93 93 N 5 7 29.86 1011 5 8 0.00 0.00
7:05 am 07:05 Partly Cloudy with Mist and Fog 67 19.4 63 17.2 87 87 N 6 9 29.88 1012 6 10 0.00 0.00
7:53 am 07:53 Mostly Sunny 70 21.1 64 17.8 82 82 N 5 7 29.87 1012 9 14 0.00 0.00
8:53 am 08:53 Partly Cloudy 72 22.2 62 16.7 71 71 NNE 9 15 29.88 1012 10 16 0.00 0.00
9:53 am 09:53 Mostly Cloudy 74 23.3 62 16.7 67 67 NE 9 15 29.89 1012 10 16 0.00 0.00
10:53 am 10:53 Partly Cloudy 78 25.6 64 17.8 62 62 NE 6 9 29.89 1012 10 16 0.00 0.00
11:53 am 11:53 Mostly Sunny 80 26.7 64 17.8 58 58 NE 14 22 29.86 1011 10 16 0.00 0.00
12:44 pm 12:44 Mostly Cloudy 82 27.8 63 17.2 53 53 NNE 16 26 29.83 1010 10 16 0.00 0.00
12:53 pm 12:53 Mostly Cloudy 82 27.8 63 17.2 53 53 NNE 13 20 29.84 1011 10 16 0.00 0.00
1:53 pm 13:53 Mostly Cloudy 79 26.1 60 15.6 52 52 NE 6 9 29.88 1012 10 16 0.00 0.00
2:37 pm 14:37 Cloudy with Light Rain 76 24.4 64 17.8 67 67 SW 20 31 29.94 1014 10 16 0.00 0.03
2:43 pm 14:43 Cloudy with Nearby Thunderstorms 75 23.9 64 17.8 69 69 WSW 15 24 29.94 1014 9 14 0.01 0.25
2:53 pm 14:53 Cloudy with Nearby Thunderstorms 74 23.3 64 17.8 71 71 W 14 22 29.97 1015 10 16 0.01 0.25
3:05 pm 15:05 Cloudy with Light Rain 73 22.8 65 18.3 76 76 W 12 19 29.91 1013 10 16 0.00 0.03
3:38 pm 15:38 Cloudy with Rain 72 22.2 66 18.9 82 82 SSE 5 7 29.88 1012 5 8 0.03 0.76
3:53 pm 15:53 Cloudy with Light Rain 71 21.7 66 18.9 84 84 Calm 29.89 1012 4 6 0.07 1.78
4:18 pm 16:18 Cloudy with Rain 71 21.7 66 18.9 84 84 Calm 29.91 1013 3 5 0.06 1.52
4:53 pm 16:53 Cloudy with Light Rain 71 21.7 66 18.9 84 84 SSE 8 13 29.87 1011 7 11 0.10 2.54
5:37 pm 17:37 Cloudy 71 21.7 67 19.4 87 87 ENE 17 28 29.77 1008 10 16 0.02 0.51
5:53 pm 17:53 Cloudy 72 22.2 64 17.8 76 76 VRB 3 6 29.83 1010 10 16 0.02 0.51
6:53 pm 18:53 Cloudy 73 22.8 66 18.9 79 79 VRB 6 9 29.81 1010 10 16 0.00 0.00
7:53 pm 19:53 Mostly Cloudy 73 22.8 65 18.3 76 76 NNE 7 11 29.83 1010 10 16 0.00 0.00
8:53 pm 20:53 Mostly Cloudy 72 22.2 64 17.8 76 76 ENE 7 11 29.85 1011 10 16 0.00 0.00
9:53 pm 21:53 Mostly Cloudy 71 21.7 64 17.8 79 79 E 8 13 29.88 1012 10 16 0.00 0.00
10:53 pm 22:53 Mostly Cloudy 69 20.6 66 18.9 90 90 SSE 7 11 29.90 1013 8 13 0.00 0.00
11:53 pm 23:53 Mostly Cloudy 69 20.6 65 18.3 87 87 E 7 11 29.89 1012 10 16 0.00 0.00

Powered by AerisWeather